sat.trackr.live / text

‹ back to catalog

ONEWEB-0693

NORAD 61601 · 2024-188H

PAYLOAD ACTIVE UNKNOWN

§ Identity

Operator
Country
UK
Launch date
2024-10-20
Launch site
AFWTR
Launch vehicle
Mass (kg)
RCS (m²)

Purposes: comms

External: N2YO · Heavens-Above · Gunter

§ Orbital elements

Epoch: 2026-09-19T14:00:58.652352Z

Period
109.29 min
Inclination
87.9190°
Eccentricity
0.0002448
Mean motion
13.17651665 rev/d
Perigee alt
1,191.8 km
Apogee alt
1,195.6 km
Semi-major
7,571.8 km
B*
1.0893e-4
RAAN
347.1426°
Arg perigee
85.8977°
Mean anomaly
274.2435°
Rev number
9,831

§ Raw data

ONEWEB-06931 61601U 24188H   26262.58401218  .00000055  00000+0  10893-3 0  99972 61601  87.9190 347.1426 0002448  85.8977 274.2435 13.17651665 98318

JSON: /api/v1/satellites/61601 · /tle

For live sub-satellite position, see the globe view (requires WebGL).

§ Visibility from observer

Set your observer location to see the next 7 days of passes ≥ 10°. The values pass through the URL so the page stays shareable.

No JS? Fill the form by hand. The geolocation button needs JavaScript.